Regional Weather Roundup
Issued by NWS Bismarck, ND

Home | Current Version | Previous Version | Text Only | Print | Product List | Glossary On
Versions: 1 2 3 4 5 6 7 8 9 10 11 12 13 14 15 16 17 18 19 20 21 22 23 24 25 26 27 28 29 30 31 32 33 34 35 36 37 38 39 40 41 42 43 44 45 46 47 48 49 50
000
ASUS43 KBIS 270602
RWRBIS

NWR BROADCAST TEXT
NATIONAL WEATHER SERVICE BISMARCK ND
100 AM CDT SAT AUG 27 2016

NOTE: "FAIR" INDICATES FEW OR NO CLOUDS BELOW 12,000 FEET WITH NO
SIGNIFICANT WEATHER AND/OR OBSTRUCTIONS TO VISIBILITY.


CITY           SKY/WX    TMP DP  RH WIND       PRES   REMARKS
WILLISTON      PTCLDY    54  45  71 CALM      29.94F
MINOT          FAIR      59  53  80 S8        29.92S
MINOT AFB      FAIR      58  53  84 S8        29.90F
BISMARCK       PTCLDY    54  51  90 S5        30.00S
DICKINSON      CLOUDY    52  46  80 W9        29.98R
GARRISON         N/A     57  56  96 S12       29.96S
HETTINGER ARPT CLOUDY    56  53  90 SE6       30.00F
JAMESTOWN      CLOUDY    57  55  93 S7        30.01F
CARRINGTON     FAIR      54  50  87 S6        30.02S
HAZEN          FAIR      55  54  94 SW10      29.99R
OAKES            N/A    N/A N/A N/A MISG        N/A
STANLEY        MOCLDY    54  54 100 SW5       29.96S
$$

CITY           SKY/WX    TMP DP  RH WIND       PRES   REMARKS
GRAND FORKS    FAIR      55  51  86 S8        30.01S
GRAND FORKS AF FAIR      54  50  86 S7        30.01S
DEVILS LAKE    MOCLDY    59  52  77 S15       29.99F
FARGO          LGT RAIN  63  56  78 SE6       30.03F
CAVALIER       FAIR      55  50  82 S8        29.98S
GRAFTON        FAIR      52  52 100 S8        30.02S
GWINNER        CLOUDY    61  59  94 SE3       30.04F
LANGDON        FAIR      55  52  88 S12       29.99S
ROLLA          FAIR      52  50  93 SW10      29.96F
$$

CITY           SKY/WX    TMP DP  RH WIND       PRES   REMARKS
ABERDEEN       MOCLDY    56  54  93 SE7       30.02F
MOBRIDGE       CLOUDY    61  54  77 SE10      29.99F
BUFFALO          N/A     52  49  89 SW7       29.94F
RAPID CITY     CLOUDY    57  56  96 NW12      30.06R
GLASGOW        CLEAR     52  43  71 VRB7      29.93F
SIDNEY         PTCLDY    54  46  74 W9        29.95S
WOLF POINT     CLEAR     48  43  82 CALM      29.95S
GLENDIVE       CLEAR     50  41  71 SW6       29.98R
MILES CITY     PTCLDY    60  43  53 SE5       29.97F
$$

CITY           SKY/WX    TMP DP  RH WIND       PRES   REMARKS
BILLINGS       PTCLDY    57  40  52 CALM      29.98F
GREAT FALLS    PTCLDY    54  38  54 S7        29.92F
$$





USA.gov is the U.S. government's official web portal to all federal, state and local government web resources and services.